Location: Champseau
(45.8333°N, 1.7667°E)
Time: 16:53:36
(UTC+00:00)

Nadezhda 4 Rocket - Pass Details

Date: 18 April 2021
Orbit: 950 x 992 km, 82.9° (Epoch: 11 May)

Event Time Altitude Azimuth Distance (km) Brightness Sun altitude
Rises 19:24:16 0° 350° (N) 3,713 7.6 -7.4°
Reaches altitude 10° 19:26:49 10° 350° (N) 2,756 6.9 -7.8°
Maximum altitude 19:33:09 83° 264° (W) 995 4.2 -8.8°
Drops below altitude 10° 19:39:22 10° 177° (S) 2,712 6.0 -9.8°
Sets 19:41:51 0° 177° (S) 3,648 6.7 -10.2°
